Regional Weather Roundup
Issued by NWS Newport/Morehead, NC

Current Version | Previous Version | Graphics & Text | Print | Product List | Glossary On
Versions: 1 2 3 4 5 6 7 8 9 10 11 12 13 14 15 16 17 18 19 20 21 22 23 24 25 26 27 28 29 30 31 32 33 34 35 36 37 38 39 40 41 42 43 44 45 46 47 48 49 50
000 ASUS42 KMHX 062213 RWRMHX WEATHER ROUNDUP FOR EASTERN NORTH CAROLINA NATIONAL WEATHER SERVICE NEWPORT/MOREHEAD CITY NC 600 PM EDT MON JUL 06 2015 NOTE: "FAIR" INDICATES FEW OR NO CLOUDS BELOW 12,000 FEET WITH NO SIGNIFICANT WEATHER AND/OR OBSTRUCTIONS TO VISIBILITY NCZ015>017-031-032-045>047-102-103-062300- NORTH COAST CITY SKY/WX TMP DP RH WIND PRES REMARKS EDENTON N/A 85 74 70 S12 30.07F ELIZABETH CITY PTSUNNY 84 74 71 S10G17 30.08F KITTY HAWK CLOUDY 82 74 77 S7 30.09S MANTEO CLOUDY 81 74 80 S13 30.10F $$ NCZ045>047-081-094-103-104-062300- CENTRAL COAST CITY SKY/WX TMP DP RH WIND PRES REMARKS FRISCO PTSUNNY 81 74 79 S9 30.12S SWANQUARTER N/A 84 N/A N/A S15 30.06S $$ NCZ095-097-098-100-101-062300- SOUTHERN COAST CITY SKY/WX TMP DP RH WIND PRES REMARKS BEAUFORT MOSUNNY 84 73 69 S16 30.11S CEDAR ISLAND N/A 86 N/A N/A SE13G20 30.15S JACKSONVILLE SUNNY 82 71 69 S12 30.09R PINEY ISLAND PTCLDY N/A N/A N/A S13G21 30.10S WILMINGTON SUNNY 86 72 62 S14 30.09R $$ NCZ011>013-027>030-043-044-078>080-089-090>093-098-062300- COASTAL PLAIN CITY SKY/WX TMP DP RH WIND PRES REMARKS AHOSKIE SUNNY 86 72 62 S5 30.06S CLINTON SUNNY 90 71 54 CALM 30.07R ELIZABETHTOWN SUNNY 91 67 45 SE3 30.06F GOLDSBORO SUNNY 90 69 49 S1 30.04S GREENVILLE SUNNY 90 68 48 SW9 30.07S HAVELOCK MOSUNNY 85 69 58 S16 30.10S KENANSVILLE SUNNY 89 65 44 CALM 30.08R KINSTON SUNNY 90 72 55 SE14 30.07S NEW BERN MOSUNNY 86 67 52 S15 30.10S RICHLANDS SUNNY 84 70 61 S9 30.09R ROCKY MOUNT MOSUNNY 91 69 48 S8 30.06S WASHINGTON MOSUNNY 87 72 61 SE8 30.07S WHITEVILLE LGT RAIN 77 72 84 W9G21 30.10R $$ AMZ130-135-150-152-154-156-158-170-250-252-270-ANZ085-086-088-633-658-670-062300- MARINE OBSERVATIONS STATION/POSITION TIME TEMP WIND PRES WAVE SWELL AIR SEA DIR/SP/G HT/PER HT/PER (UTC) (F) (DEG/KT/KT) (MB) (FT/S) (FT/S) CHESAPEAKE LIGHT 2200 78 160/ 9/ 9 1019.0 64 E VA BEACH 2150 79 77 190/ 14/ 16 1018.9 3/ 9 2/ 9 DUCK 2100 81 77 180/ 10/ 13 N/A 2 E DUCK 2111 78 N/A 2/ 9 OREGON INLET 2100 81 80 180/ 12/ 15 1019.7 13E OREGON INLT 2200 79 N/A 3/ 8 2/13 HATTERAS CG 2100 82 81 160/ 8/ 14 1019.4 DIAMOND BUOY 2150 81 82 190/ 16/ 17 1019.5 3/ 8 2/ 8 CAPE LOOKOUT 2200 82 190/ 15/ 17 1019.4 BEAUFORT LAB 2100 82 82 190/ 14/ 17 1018.8 30 SE NEW RVR IN NOT AVBL 27 SE WRIGHTSVLE 2100 80 200/ 12/ 14 N/A 5 SE WRIGHTSVLE 2108 80 79 210/ 16/ 19 1019.1 225 S CAPE HAT 2150 81 80 210/ 12/ 14 1021.9 4/ 9 3/ 9 41 SE CHARLESTON 2150 80 83 210/ 10/ 12 1019.5 3/ 9 2/ 9 $$

USA.gov is the U.S. government's official web portal to all federal, state and local government web resources and services.